Yuma MCAS, AZ

9:32 AM MST on May 26, 2018 (GMT -0700)
Yuma Marine Corps Air Station

Weather History for KNYL - January, 2015

Change the Weather History Date:

Thursday, January 22, 2015

  Actual Average Record
Temperature  
Mean Temperature 61 °F 59 °F  
Max Temperature 71 °F 70 °F 82 °F (2014)
Min Temperature 51 °F 48 °F 25 °F (1937)
Degree Days  
Heating Degree Days 4 6  
Month to date heating degree days 17 152  
Since 1 July heating degree days 32 456  
Cooling Degree Days 0 0  
Month to date cooling degree days 0 0  
Year to date cooling degree days 0 0  
Growing Degree Days 12 (Base 50)    
Moisture  
Dew Point 11 °F    
Average Humidity 14    
Maximum Humidity 22    
Minimum Humidity 6    
Precipitation  
Precipitation 0.00 in 0.01 in 0.50 in (1915)
Month to date precipitation 0.12 0.28  
Year to date precipitation 0.12 0.28  
Sea Level Pressure  
Sea Level Pressure 30.21 in    
Wind  
Wind Speed 8 mph (North)    
Max Wind Speed 23 mph    
Max Gust Speed 28 mph    
Visibility 10 miles    
Events      
T = Trace of Precipitation, MM = Missing Value Source: NWS Daily Summary

Daily Weather History Graph

Daily Weather History Graph

Search for Another Location

Airport or City:

Astronomy

Jan. 22, 2015 Rise Set
Actual Time 7:38 AM MST 6:01 PM MST
Civil Twilight 7:12 AM MST 6:28 PM MST
Nautical Twilight 6:42 AM MST 6:58 PM MST
Astronomical Twilight 6:12 AM MST 7:27 PM MST
Moon 9:03 AM MST (1/22) 8:54 PM MST (1/22)
Length of Visible Light 11h 15m
Length of Day
10h 23m
Waxing Crescent, 7% of the Moon is Illuminated
Jan 22
Waxing Crescent
Jan 26
First Quarter
Feb 3
Full
Feb 11
Last Quarter
Feb 18
New

Hourly Weather History & Observations

Time (MST) Temp. Dew Point Humidity Pressure Visibility Wind Dir Wind Speed Gust Speed Precip Events Conditions
12:57 AM 64.0 °F 15.1 °F 15% 30.07 in 10.0 mi North 8.1 mph - N/A   Clear
1:57 AM 63.0 °F 14.0 °F 15% 30.08 in 10.0 mi North 11.5 mph - N/A   Clear
2:57 AM 60.1 °F 15.1 °F 17% 30.10 in 10.0 mi Calm Calm - N/A   Clear
3:57 AM 59.0 °F 12.9 °F 16% 30.11 in 10.0 mi North 4.6 mph - N/A   Clear
4:57 AM 57.0 °F 14.0 °F 18% 30.12 in 10.0 mi NW 5.8 mph - N/A   Clear
5:57 AM 55.9 °F 14.0 °F 19% 30.13 in 10.0 mi North 10.4 mph - N/A   Clear
6:57 AM 55.9 °F 12.0 °F 18% 30.17 in 10.0 mi North 6.9 mph - N/A   Clear
7:57 AM 52.0 °F 14.0 °F 22% 30.20 in 10.0 mi Calm Calm - N/A   Partly Cloudy
8:57 AM 60.1 °F 12.9 °F 16% 30.22 in 10.0 mi North 9.2 mph - N/A   Partly Cloudy
9:57 AM 63.0 °F 12.9 °F 14% 30.25 in 10.0 mi North 12.7 mph - N/A   Partly Cloudy
10:57 AM 64.9 °F 10.9 °F 12% 30.27 in 10.0 mi NNE 19.6 mph - N/A   Partly Cloudy
11:57 AM 68.0 °F 10.9 °F 11% 30.26 in 10.0 mi North 13.8 mph 20.7 mph N/A   Scattered Clouds
12:57 PM 70.0 °F 7.0 °F 9% 30.24 in 10.0 mi NNE 16.1 mph 20.7 mph N/A   Scattered Clouds
1:57 PM 70.0 °F 5.0 °F 8% 30.22 in 10.0 mi NNE 10.4 mph 19.6 mph N/A   Mostly Cloudy
2:57 PM 71.1 °F 6.1 °F 8% 30.21 in 10.0 mi North 10.4 mph - N/A   Mostly Cloudy
3:57 PM 71.1 °F 1.9 °F 7% 30.21 in 10.0 mi North 12.7 mph - N/A   Mostly Cloudy
4:57 PM 70.0 °F 3.9 °F 7% 30.21 in 10.0 mi NNE 10.4 mph - N/A   Mostly Cloudy
5:57 PM 64.9 °F 9.0 °F 11% 30.22 in 10.0 mi North 5.8 mph - N/A   Mostly Cloudy
6:57 PM 62.1 °F 8.1 °F 12% 30.25 in 10.0 mi North 8.1 mph - N/A   Mostly Cloudy
7:57 PM 60.1 °F 10.0 °F 14% 30.26 in 10.0 mi North 6.9 mph - N/A   Mostly Cloudy
8:57 PM 57.0 °F 10.0 °F 15% 30.27 in 10.0 mi North 4.6 mph - N/A   Mostly Cloudy
9:57 PM 55.9 °F 10.0 °F 16% 30.29 in 10.0 mi North 5.8 mph - N/A   Mostly Cloudy
10:57 PM 53.1 °F 10.0 °F 18% 30.31 in 10.0 mi Calm Calm - N/A   Mostly Cloudy
11:57 PM 52.0 °F 15.1 °F 23% 30.31 in 10.0 mi NE 4.6 mph - N/A   Clear